Location: Newark
(21.0333°N, 105.8500°E)
Time: 01:30:26
(UTC+00:00)

Envisat - Pass Details

Date: 13 December 2019
Orbit: 764 x 766 km, 98.1° (Epoch: 23 January)

Event Time Altitude Azimuth Distance (km) Brightness Sun altitude
Rises 10:37:10 0° 151° (SSE) 3,216 6.2 -5.2°
Reaches altitude 10° 10:39:35 10° 143° (SE) 2,292 5.3 -5.7°
Maximum altitude 10:44:17 40° 75° (ENE) 1,111 3.4 -6.7°
Drops below altitude 10° 10:49:00 10° 6° (N) 2,298 5.2 -7.8°
Sets 10:51:25 0° 360° (N) 3,226 6.0 -8.3°
